KE3HG-2 Weather Reports


Display with metric or nautical units.
time (UTC)temp
F
wind
direction
speed
MPH
gust
MPH
rain 1hr
in
rain 24hr
in
rain mn
in
humidity
%
barometer
mb
20260504183744 73 207 2.0 5.0 0.00 0.00 0.00 23 757.5
20260504182744 72 232 4.0 7.0 0.00 0.00 0.00 24 757.5
20260504181744 72 222 3.0 10.0 0.00 0.00 0.00 23 757.5
20260504180113 72 202 3.0 7.0 0.00 0.00 0.00 25 757.5
20260504175114 72 219 2.0 6.0 0.00 0.00 0.00 24 757.5
20260504174113 71 210 3.0 5.0 0.00 0.00 0.00 26 757.5
20260504172458 71 217 4.0 7.0 0.00 0.00 0.00 25 757.5
20260504171458 71 220 3.0 7.0 0.00 0.00 0.00 25 757.5
20260504170458 70 192 3.0 5.0 0.00 0.00 0.00 25 757.5
20260504160145 68 222 4.0 6.0 0.00 0.00 0.00 27 757.5
20260504141202 62 213 3.0 6.0 0.00 0.00 0.00 33 757.5
20260504140201 62 207 3.0 6.0 0.00 0.00 0.00 34 757.5
20260504081523 41 0 0.0 0.0 0.00 0.00 0.00 59 757.5
20260504080523 41 0 0.0 0.0 0.00 0.00 0.00 59 757.5
20260504070137 44 0 0.0 0.0 0.00 0.00 0.00 56 757.5
20260504045833 48 0 0.0 2.0 0.00 0.00 0.00 41 757.5
20260504044833 48 0 0.0 2.0 0.00 0.00 0.00 40 757.5
20260504043833 49 0 0.0 1.0 0.00 0.00 0.00 40 757.5
20260504042833 49 0 0.0 1.0 0.00 0.00 0.00 40 757.5
20260504041833 50 0 0.0 1.0 0.00 0.00 0.00 39 757.5
20260504040833 50 0 0.0 2.0 0.00 0.00 0.00 39 757.5
20260504035213 50 217 2.0 3.0 0.00 0.00 0.00 38 757.5
20260504034212 50 218 2.0 4.0 0.00 0.00 0.00 39 757.5
20260504033212 50 0 0.0 2.0 0.00 0.00 0.00 40 757.5
20260504031559 51 217 1.0 3.0 0.00 0.00 0.00 38 757.5
20260504030600 51 0 0.0 1.0 0.00 0.00 0.00 38 757.5
20260504025559 51 218 1.0 3.0 0.00 0.00 0.00 37 757.5
20260504023944 51 0 0.0 0.0 0.00 0.00 0.00 38 757.5
20260504022944 51 0 0.0 0.0 0.00 0.00 0.00 38 757.5
20260504021945 51 0 0.0 0.0 0.00 0.00 0.00 37 757.5
20260504020325 52 0 0.0 0.0 0.00 0.00 0.00 36 757.5
20260504015325 53 0 0.0 0.0 0.00 0.00 0.00 35 757.5
20260504014325 54 0 0.0 0.0 0.00 0.00 0.00 33 757.5
20260504012727 54 0 0.0 0.0 0.00 0.00 0.00 31 757.5
20260504011727 55 0 0.0 0.0 0.00 0.00 0.00 33 757.5
20260504010726 55 218 1.0 3.0 0.00 0.00 0.00 31 757.5
20260504005112 55 218 2.0 3.0 0.00 0.00 0.00 29 757.5
20260504004112 56 217 1.0 3.0 0.00 0.00 0.00 28 757.5
20260504003112 56 217 1.0 3.0 0.00 0.00 0.00 28 757.5
20260504001447 57 217 1.0 2.0 0.00 0.00 0.00 28 757.5
20260504000446 57 217 2.0 3.0 0.00 0.00 0.00 26 757.5
20260503235447 58 218 1.0 3.0 0.00 0.00 0.00 26 757.5
20260503233834 59 217 1.0 3.0 0.00 0.00 0.00 25 757.5
20260503232834 59 238 2.0 4.0 0.00 0.00 0.00 24 757.5
20260503231834 59 232 2.0 5.0 0.00 0.00 0.00 23 757.5
20260503230223 60 218 1.0 4.0 0.00 0.00 0.00 23 757.5
20260503225223 60 212 2.0 5.0 0.00 0.00 0.00 23 757.5
20260503224223 60 210 1.0 4.0 0.00 0.00 0.00 23 757.5
20260503222610 60 290 1.0 3.0 0.00 0.00 0.00 21 757.5
20260503221610 60 233 3.0 5.0 0.00 0.00 0.00 21 757.5
20260503220610 60 278 2.0 6.0 0.00 0.00 0.00 22 757.5
20260503214947 60 300 3.0 8.0 0.00 0.00 0.00 21 757.5
20260503213947 60 227 2.0 5.0 0.00 0.00 0.00 22 757.5
20260503212947 60 317 2.0 14.0 0.00 0.00 0.00 23 757.5
20260503211325 60 214 3.0 12.0 0.00 0.00 0.00 19 757.5
20260503210324 60 239 2.0 7.0 0.00 0.00 0.00 19 757.5
20260503205324 60 267 3.0 9.0 0.00 0.00 0.00 20 757.5
20260503203705 60 223 2.0 7.0 0.00 0.00 0.00 19 757.5
20260503202706 60 266 2.0 8.0 0.00 0.00 0.00 20 757.5
20260503201706 59 238 3.0 9.0 0.00 0.00 0.00 20 757.5
20260503200038 59 262 4.0 8.0 0.00 0.00 0.00 21 757.5
20260503195038 59 284 4.0 11.0 0.00 0.00 0.00 21 757.5
20260503194038 58 297 2.0 11.0 0.00 0.00 0.00 22 757.5
20260503192422 57 300 7.0 11.0 0.00 0.00 0.00 22 757.5
20260503191422 57 246 4.0 16.0 0.00 0.00 0.00 24 757.5
20260503190421 58 295 4.0 9.0 0.00 0.00 0.00 24 757.5